Погода Терней

Погода Терней : погода сейчас, прогноз погоды и архив. Всё, что Вы хотите узнать о погоде Терней!

Хотите узнать прогноз погоды Терней? Тогда Вам сюда: Погода Терней

Поиск расширенной информации на нашем сайте:

Другие новости

Новости СМИ2

Главная страница сайта

Новости сайта

03.07.2017

Напоминаем, что на нашем специализированном сайте Метеоцентр.Азия вы можете получить высокодетализированные автоматические прогнозы погоды по пунктам России, СНГ и мира в авиационном формате (включающие направление и скорость ветра, видимость, явления погоды, количество и форму облачности, нижнюю и верхнюю границу облачности).


Погода Терней - сегодня

Время (UTC), дата Ветер
(°,м/с) 
Видим.   Явления Облачность Т
(°С)
Тd
(°С)
f(%) Тe
(°С)
Pmin
(гПа)
dP
(гПа)
Po
(мм)
O2
(г/м3)
Тmin Tmax R s Состояние
почвы
15 18.02.18 280 (З) 4{11}  20000 м    ясно 
-12.7 -24.8 36 -17  1019.5  -0.5  758  322           
18 18.02.18 300 (СЗ) 4{11}  20000 м    ясно 
-13.4 -25.3 36 -18  1018.5  -1  758  323           
00 19.02.18 310 (СЗ) 20000 м    ясно 
-10.7 -23.3 35 -13  1017.7  757  319           
03 19.02.18 290 (З) 6-13{14}  20000 м    ясно 
-5.6 -22 26 -10  1015.4  -2.1  756  312           
06 19.02.18 300 (СЗ) 5{15}  20000 м    1/1 600 м 
[Sc]
-5 -21.9 25 -9  1013.4  -2  754  311           
12 19.02.18 270 (З) 4{13}  20000 м    ясно 
-10.2 -23.9 32 -14  1015.7  0.7  756  318           
15 19.02.18 270 (З) 20000 м    ясно 
-10.7 -23.1 35 -16  1015.6  -0.2  756  318           
18 19.02.18 260 (З) 20000 м    ясно 
-13 -21.7 48 -13  1015.4  -0.2  755  321           
00 20.02.18 280 (З) 20000 м    ясно 
-9.2 -22.2 34 -13  1014.3  -0.5  755  316  -17.5         
12 20.02.18 290 (З) 4{15}  20000 м    ясно 
-12.6 -23.7 39 -17  1015.6  756  321           
15 20.02.18 290 (З) 4{13}  20000 м    ясно 
-13.3 -24.6 38 -18  1015.8  0.2  756  322           
18 20.02.18 260 (З) 2{11}  20000 м    ясно 
-14.6 -23.2 48 -17  1016.1  0.2  756  323           
06 21.02.18 290 (З) 4{13}  20000 м    1/1 600 м 
[Cu hum]
-6.7 -25.2 21 -10  1014.8  -1.2  755  314           
12 21.02.18 300 (СЗ) 20000 м    ясно 
-13.4 -25.6 35 -16  1018.7  1.7  758  323           
15 21.02.18 290 (З) 20000 м    ясно 
-17.2 -24.9 51 -20  1019  0.2  758  328           
18 21.02.18 320 (СЗ) 20000 м    ясно 
-18.8 -25.5 55 -23  1018.6  -0.4  758  330           
00 22.02.18 320 (СЗ) 20000 м    ясно 
-15.3 -23.5 49 -19  1017.6  -0.1  757  325  -20.2         
03 22.02.18 060 (СВ) 20000 м    ясно 
-5.4 -19.7 31 -5  1015.2  -2.1  755  312           
06 22.02.18 170 (Ю) 20000 м    8/8 600 м 
[Sc]
-2.6 -16.7 33 -2  1013.2  -1.9  754  308           
09 22.02.18 270 (З) 20000 м    10/10 600 м 
[Sc]
-4.3 -10.4 62 -6  1014.9  1.6  755  310    -2.1       
12 22.02.18 250 (З) 20000 м    3/3 600 м 
[Sc]
-8.4 -11.7 77 -10  1016.5  1.4  756  316           
15 22.02.18 320 (СЗ) 20000 м    ясно 
-11.5 -14.7 77 -15  1017.3  0.7  757  320           
18 22.02.18 310 (СЗ) 20000 м    ясно 
-12.5 -16.6 71 -16  1016.4  -0.9  756  321           
03 23.02.18 300 (СЗ) 2000 м  снег  10/10 300 м 
[Frnb|Ns]
-5.8 -8.4 82 -10  1013.7  -2  754  311           
09 23.02.18 290 (З) 9-17{17}  20000 м  позёмок  9/0 средняя, верхняя 
[As trans|Cs]
-6.6 -19.5 35 -13  1015.5  2.2  756  313    -4.8     
Время (UTC), дата Ветер
(°,м/с) 
Видим.   Явления Облачность Т
(°С)
Тd
(°С)
f(%) Тe
(°С)
Pmin
(гПа)
dP
(гПа)
Po
(мм)
O2
(г/м3)
Тmin Tmax R s Состояние
почвы

Для получения пояснительной информации подведите курсор к названию столбца.

ПОГОДА Терней - архив

Всё, что Вы хотите узнать о погоде Терней - удобно и подробно!

Выберите нужную дату (начиная с 1 января 2015* года) и нажмите кнопку "Найти".
Будут отображены архивные сводки погоды по пункту Терней, начиная с указанной даты.


Отображать данные в формате CSV (для использования в таблицах Excel)


Внимание! Наш архив погоды предназначен исключительно для личного некоммерческого использования в познавательных целях. Если Вам необходимы официальные справки о состоянии погоды (для производственных, юридических, коммерческих и т.п. целей), обращайтесь в органы Росгидромета.

*Примечание: данная дата относится к архиву по метеостанциям СССР (Россия, СНГ, Балтия).
Архив по метеостанциям Зарубежной Европы и Азии (кроме Китая) хранится 10 дней, по другим регионам земного шара (Китай, Африка, Америка, Австралия, Океания) - 1 день.

Терней - район местоположения метеостанции


Название, широта, долгота, высота метеостанции:
Терней 45°ш. 136.6°д. 68 м над ур. моря [Российская Федерация]

Дополнительная информация

В oтличие oт бoльшинства пoгoдных сайтoв мы публикуем пoдрoбную метеoинфoрмацию в детальнoм прoфессиoнальнoм фoрмате.

Характеристики температуры и влажнoсти вoздуха измеряются на высoте 2 м в тени вдали oт зданий и деревьев.
Скoрoсть ветра измеряется на высoте 10 м (на урoвне рoста челoвека скoрoсть ветра ниже в 1.5-2 раза). Если метеoстанция нахoдится в гoрoде или в лесу, тo скoрoсть ветра занижена на 2-4 м/с пo сравнению с oткрытым местoм. Скoрoсть ветра над акватoриями крупных рек и oзёр, а также на вершинах хoлмoв на 2-5 м/с выше, чем в oбычных услoвиях.
Атмoсфернoе давление в разных тoчках местнoсти мoжет значительнo oтличаться oт давления на метеoстанции, в зависимoсти oт услoвий рельефа (при пoдъёме на 10 м давление пoнижается примернo на 1 мм рт.ст.).